EW5836 Weather Reports


Display with metric or nautical units.
time (UTC)temp
F
wind
direction
speed
MPH
gust
MPH
rain 1hr
in
rain 24hr
in
rain mn
in
humidity
%
barometer
mb
20260831232059 74 317 0.0 3.0 0.00 0.00 0.00 59 1016.4
20260831231541 74 326 0.0 0.0 0.00 0.00 0.00 59 1016.4
20260831231059 74 326 0.0 0.0 0.00 0.00 0.00 59 1016.3
20260831230535 74 326 0.0 0.0 0.00 0.00 0.00 58 1016.2
20260831230038 73 326 0.0 0.0 0.00 0.00 0.00 60 1016.2
20260831225538 73 326 0.0 0.0 0.00 0.00 0.00 63 1016.2
20260831225046 73 350 0.0 0.0 0.00 0.00 0.00 64 1016.2
20260831224539 73 302 0.0 0.0 0.00 0.00 0.00 63 1016.1
20260831224049 73 302 0.0 0.0 0.00 0.00 0.00 63 1016.2
20260831223551 74 302 0.0 0.0 0.00 0.00 0.00 63 1016.2
20260831223039 74 302 0.0 0.0 0.00 0.00 0.00 62 1016.3
20260831222533 75 302 0.0 0.0 0.00 0.00 0.00 62 1016.3
20260831222032 75 302 0.0 0.0 0.00 0.00 0.00 62 1016.2
20260831221547 75 302 0.0 0.0 0.00 0.00 0.00 62 1016.2
20260831221102 75 302 0.0 0.0 0.00 0.00 0.00 63 1016.2
20260831220541 75 302 0.0 0.0 0.00 0.00 0.00 63 1016.2
20260831220051 75 295 0.0 0.0 0.00 0.00 0.00 63 1016.2
20260831215559 75 295 0.0 0.0 0.00 0.00 0.00 62 1016.1
20260831215046 75 301 0.0 0.0 0.00 0.00 0.00 65 1016.1
20260831214549 75 301 0.0 0.0 0.00 0.00 0.00 64 1016.1
20260831214104 75 308 0.0 0.0 0.00 0.00 0.00 64 1016.1
20260831213543 75 308 0.0 0.0 0.00 0.00 0.00 63 1016.1
20260831213037 75 301 0.0 0.0 0.00 0.00 0.00 61 1016.1
20260831212536 75 303 0.0 0.0 0.00 0.00 0.00 63 1016.1
20260831212045 76 303 0.0 0.0 0.00 0.00 0.00 62 1016.1
20260831211546 76 301 0.0 0.0 0.00 0.00 0.00 61 1016.1
20260831211101 77 292 0.0 0.0 0.00 0.00 0.00 60 1016.1
20260831210534 77 248 0.0 0.0 0.00 0.00 0.00 59 1016.1
20260831210041 78 347 0.0 0.0 0.00 0.00 0.00 58 1016.0
20260831205543 78 347 0.0 0.0 0.00 0.00 0.00 54 1015.9
20260831205043 78 347 0.0 0.0 0.00 0.00 0.00 55 1015.9
20260831204551 78 335 0.0 0.0 0.00 0.00 0.00 53 1015.8
20260831204104 78 323 0.0 11.0 0.00 0.00 0.00 54 1015.9
20260831203546 78 318 1.0 11.0 0.00 0.00 0.00 56 1015.8
20260831203105 77 326 1.0 6.0 0.00 0.00 0.00 58 1015.8
20260831202545 78 306 0.0 0.0 0.00 0.00 0.00 56 1015.9
20260831202044 78 307 0.0 0.0 0.00 0.00 0.00 50 1015.8
20260831201605 78 336 0.0 2.0 0.00 0.00 0.00 53 1015.8
20260831201048 77 66 0.0 3.0 0.00 0.00 0.00 48 1015.7
20260831200550 76 341 0.0 0.0 0.00 0.00 0.00 58 1015.7
20260831200041 76 318 0.0 0.0 0.00 0.00 0.00 63 1015.6
20260831195541 76 312 0.0 0.0 0.00 0.00 0.00 67 1015.6
20260831195051 77 312 0.0 0.0 0.00 0.00 0.00 68 1015.6
20260831194555 77 312 0.0 0.0 0.00 0.00 0.00 68 1015.6
20260831194044 78 312 0.0 0.0 0.00 0.00 0.00 68 1015.6
20260831193546 78 312 0.0 0.0 0.00 0.00 0.00 68 1015.6
20260831193057 78 312 0.0 0.0 0.00 0.00 0.00 67 1015.4
20260831192532 78 312 0.0 0.0 0.00 0.00 0.00 67 1015.4
20260831192038 78 312 0.0 0.0 0.00 0.00 0.00 67 1015.4
20260831191541 78 312 0.0 0.0 0.00 0.00 0.00 67 1015.3
20260831191059 78 314 0.0 0.0 0.00 0.00 0.00 66 1015.2
20260831190534 79 324 0.0 0.0 0.00 0.00 0.00 66 1015.2
20260831190041 79 324 0.0 0.0 0.00 0.00 0.00 66 1015.1
20260831185544 79 324 0.0 0.0 0.00 0.00 0.00 67 1015.0
20260831185042 79 324 0.0 0.0 0.00 0.00 0.00 66 1015.0
20260831184603 79 324 0.0 0.0 0.00 0.00 0.00 66 1014.9
20260831184037 80 324 0.0 0.0 0.00 0.00 0.00 65 1014.8
20260831183602 80 324 0.0 0.0 0.00 0.00 0.00 64 1014.8
20260831183059 81 324 0.0 0.0 0.00 0.00 0.00 63 1014.7
20260831182534 81 324 0.0 0.0 0.00 0.00 0.00 62 1014.5
20260831182045 81 324 0.0 0.0 0.00 0.00 0.00 61 1014.4
20260831181606 82 324 0.0 0.0 0.00 0.00 0.00 61 1014.3
20260831181102 82 324 0.0 4.0 0.00 0.00 0.00 60 1014.3
20260831180543 83 324 0.0 4.0 0.00 0.00 0.00 58 1014.3
20260831180032 83 324 0.0 2.0 0.00 0.00 0.00 57 1014.2
20260831175532 83 320 0.0 0.0 0.00 0.00 0.00 57 1014.3
20260831175040 83 319 0.0 0.0 0.00 0.00 0.00 56 1014.2
20260831174542 84 318 0.0 0.0 0.00 0.00 0.00 57 1014.2
20260831174041 84 318 0.0 5.0 0.00 0.00 0.00 56 1014.1
20260831173542 84 322 0.0 8.0 0.00 0.00 0.00 55 1014.1
20260831173038 84 323 2.0 8.0 0.00 0.00 0.00 55 1014.1
20260831172542 83 319 1.0 5.0 0.00 0.00 0.00 56 1014.0
20260831172032 83 306 0.0 0.0 0.00 0.00 0.00 54 1014.1
20260831171534 84 301 0.0 0.0 0.00 0.00 0.00 52 1014.1
20260831171039 84 301 0.0 0.0 0.00 0.00 0.00 51 1014.2
20260831170542 85 301 0.0 0.0 0.00 0.00 0.00 51 1014.1
20260831170036 86 131 0.0 0.0 0.00 0.00 0.00 51 1014.2
20260831165540 86 131 0.0 0.0 0.00 0.00 0.00 50 1014.2
20260831165044 87 131 0.0 0.0 0.00 0.00 0.00 49 1014.2
20260831164609 88 131 0.0 0.0 0.00 0.00 0.00 48 1014.2
20260831164038 89 131 0.0 0.0 0.00 0.00 0.00 48 1014.3
20260831163541 90 131 0.0 0.0 0.00 0.00 0.00 47 1014.2
20260831163100 89 131 0.0 0.0 0.00 0.00 0.00 43 1014.2
20260831162534 89 131 0.0 0.0 0.00 0.00 0.00 43 1014.2
20260831162041 89 131 0.0 0.0 0.00 0.00 0.00 42 1014.1
20260831161602 89 131 0.0 0.0 0.00 0.00 0.00 42 1014.1
20260831161048 90 131 0.0 0.0 0.00 0.00 0.00 43 1014.1
20260831160545 90 131 0.0 0.0 0.00 0.00 0.00 42 1014.2
20260831160035 90 161 0.0 0.0 0.00 0.00 0.00 43 1014.2
20260831155534 90 165 0.0 0.0 0.00 0.00 0.00 43 1014.2
20260831155047 90 165 0.0 0.0 0.00 0.00 0.00 43 1014.2
20260831154549 90 165 0.0 0.0 0.00 0.00 0.00 44 1014.3
20260831154036 89 165 0.0 0.0 0.00 0.00 0.00 44 1014.3
20260831153537 89 165 0.0 0.0 0.00 0.00 0.00 44 1014.3
20260831153049 89 165 0.0 0.0 0.00 0.00 0.00 45 1014.3
20260831152551 90 166 0.0 3.0 0.00 0.00 0.00 46 1014.4
20260831152053 90 168 1.0 2.0 0.00 0.00 0.00 44 1014.4
20260831151606 91 182 1.0 4.0 0.00 0.00 0.00 45 1014.4
20260831151038 91 242 2.0 4.0 0.00 0.00 0.00 44 1014.4
20260831150602 91 155 0.0 0.0 0.00 0.00 0.00 44 1014.5
20260831150059 90 155 0.0 5.0 0.00 0.00 0.00 45 1014.4
20260831145541 90 155 2.0 6.0 0.00 0.00 0.00 44 1014.5
20260831145057 91 237 0.0 0.0 0.00 0.00 0.00 46 1014.5
20260831144535 90 158 0.0 0.0 0.00 0.00 0.00 45 1014.6
20260831144042 91 138 0.0 3.0 0.00 0.00 0.00 44 1014.6
20260831143605 91 166 0.0 4.0 0.00 0.00 0.00 46 1014.6
20260831143033 90 226 1.0 4.0 0.00 0.00 0.00 46 1014.6
20260831142535 90 239 0.0 0.0 0.00 0.00 0.00 45 1014.7
20260831142043 90 183 0.0 0.0 0.00 0.00 0.00 47 1014.6
20260831141546 90 150 0.0 7.0 0.00 0.00 0.00 47 1014.6
20260831141036 90 161 0.0 7.0 0.00 0.00 0.00 46 1014.6
20260831140539 91 179 0.0 0.0 0.00 0.00 0.00 47 1014.6
20260831140046 90 179 0.0 0.0 0.00 0.00 0.00 47 1014.6
20260831135546 90 193 0.0 0.0 0.00 0.00 0.00 49 1014.7
20260831135034 90 167 0.0 0.0 0.00 0.00 0.00 49 1014.7
20260831134537 89 242 0.0 6.0 0.00 0.00 0.00 50 1014.8
20260831134050 88 185 0.0 9.0 0.00 0.00 0.00 51 1014.8
20260831133552 89 133 2.0 9.0 0.00 0.00 0.00 49 1014.8
20260831133101 89 176 0.0 0.0 0.00 0.00 0.00 50 1014.9
20260831132535 89 172 0.0 0.0 0.00 0.00 0.00 52 1014.9
20260831132044 88 154 0.0 5.0 0.00 0.00 0.00 52 1014.9
20260831131544 88 155 2.0 11.0 0.00 0.00 0.00 52 1014.9
20260831131050 88 144 3.0 11.0 0.00 0.00 0.00 51 1015.0
20260831130552 89 141 0.0 4.0 0.00 0.00 0.00 51 1015.0
20260831130109 89 125 1.0 4.0 0.00 0.00 0.00 50 1015.1
20260831125549 90 128 0.0 0.0 0.00 0.00 0.00 50 1015.1
20260831125035 89 341 0.0 0.0 0.00 0.00 0.00 50 1015.1
20260831124537 88 228 0.0 7.0 0.00 0.00 0.00 51 1015.2
20260831124044 87 150 0.0 8.0 0.00 0.00 0.00 52 1015.2
20260831123602 87 175 0.0 8.0 0.00 0.00 0.00 54 1015.3
20260831123100 87 157 1.0 8.0 0.00 0.00 0.00 53 1015.3
20260831122532 87 135 4.0 8.0 0.00 0.00 0.00 53 1015.4
20260831122106 87 110 0.0 1.0 0.00 0.00 0.00 53 1015.4
20260831121546 87 185 0.0 8.0 0.00 0.00 0.00 53 1015.5
20260831121054 87 112 0.0 9.0 0.00 0.00 0.00 52 1015.5
20260831120555 87 169 4.0 9.0 0.00 0.00 0.00 53 1015.5
20260831120038 87 118 2.0 8.0 0.00 0.00 0.00 52 1015.5
20260831115601 87 189 2.0 8.0 0.00 0.00 0.00 53 1015.6
20260831115047 87 286 0.0 0.0 0.00 0.00 0.00 51 1015.6
20260831114550 87 248 0.0 0.0 0.00 0.00 0.00 52 1015.7
20260831114042 87 158 0.0 6.0 0.00 0.00 0.00 53 1015.7
20260831113546 87 158 1.0 7.0 0.00 0.00 0.00 53 1015.8
20260831113036 87 143 1.0 7.0 0.00 0.00 0.00 54 1015.9
20260831112559 87 157 0.0 0.0 0.00 0.00 0.00 52 1015.9
20260831112042 87 158 0.0 0.0 0.00 0.00 0.00 53 1016.0
20260831111543 87 321 0.0 0.0 0.00 0.00 0.00 53 1016.0
20260831111035 86 193 0.0 0.0 0.00 0.00 0.00 54 1016.1
20260831110538 86 206 0.0 5.0 0.00 0.00 0.00 54 1016.1
20260831110042 86 164 1.0 6.0 0.00 0.00 0.00 55 1016.1
20260831105547 86 162 0.0 4.0 0.00 0.00 0.00 55 1016.2
20260831105034 85 168 0.0 10.0 0.00 0.00 0.00 57 1016.2
20260831104537 85 135 5.0 10.0 0.00 0.00 0.00 55 1016.2
20260831104044 86 160 0.0 0.0 0.00 0.00 0.00 56 1016.2
20260831103540 85 104 0.0 0.0 0.00 0.00 0.00 58 1016.2
20260831103047 84 242 0.0 3.0 0.00 0.00 0.00 57 1016.3
20260831102551 84 254 0.0 3.0 0.00 0.00 0.00 58 1016.4
20260831102040 84 117 0.0 4.0 0.00 0.00 0.00 57 1016.3
20260831101601 84 174 0.0 6.0 0.00 0.00 0.00 59 1016.4
20260831101036 84 160 1.0 6.0 0.00 0.00 0.00 58 1016.5
20260831100539 84 171 0.0 4.0 0.00 0.00 0.00 58 1016.5
20260831100045 84 170 1.0 4.0 0.00 0.00 0.00 58 1016.5
20260831095542 84 118 0.0 0.0 0.00 0.00 0.00 58 1016.6
20260831095056 83 155 0.0 0.0 0.00 0.00 0.00 58 1016.6
20260831094538 83 155 0.0 0.0 0.00 0.00 0.00 59 1016.6
20260831094048 83 155 0.0 0.0 0.00 0.00 0.00 61 1016.7
20260831093607 83 155 0.0 0.0 0.00 0.00 0.00 60 1016.7
20260831093104 83 174 0.0 0.0 0.00 0.00 0.00 59 1016.6
20260831092548 83 116 0.0 0.0 0.00 0.00 0.00 60 1016.7
20260831092038 83 131 0.0 0.0 0.00 0.00 0.00 61 1016.6
20260831091541 83 103 0.0 0.0 0.00 0.00 0.00 60 1016.7
20260831091059 83 158 0.0 3.0 0.00 0.00 0.00 60 1016.8
20260831090540 83 161 0.0 3.0 0.00 0.00 0.00 60 1016.7
20260831090048 82 169 0.0 7.0 0.00 0.00 0.00 62 1016.7
20260831085551 82 173 1.0 7.0 0.00 0.00 0.00 62 1016.8
20260831085107 81 204 0.0 0.0 0.00 0.00 0.00 61 1016.8
20260831084547 81 164 0.0 0.0 0.00 0.00 0.00 62 1016.8
20260831084100 81 145 0.0 3.0 0.00 0.00 0.00 61 1016.8
20260831083533 81 77 0.0 6.0 0.00 0.00 0.00 62 1016.8
20260831083044 81 154 1.0 6.0 0.00 0.00 0.00 62 1016.8
20260831082546 81 88 1.0 6.0 0.00 0.00 0.00 61 1016.8
20260831082034 81 110 0.0 3.0 0.00 0.00 0.00 60 1016.7
20260831081534 81 141 0.0 0.0 0.00 0.00 0.00 58 1016.7
20260831081043 81 111 0.0 0.0 0.00 0.00 0.00 59 1016.7
20260831080545 81 145 0.0 1.0 0.00 0.00 0.00 61 1016.7
20260831080033 80 208 0.0 1.0 0.00 0.00 0.00 62 1016.7
20260831075537 80 261 0.0 0.0 0.00 0.00 0.00 61 1016.6
20260831075109 79 134 0.0 0.0 0.00 0.00 0.00 65 1016.7
20260831074548 79 134 0.0 3.0 0.00 0.00 0.00 65 1016.7
20260831074102 79 134 0.0 3.0 0.00 0.00 0.00 64 1016.7
20260831073543 79 121 0.0 0.0 0.00 0.00 0.00 63 1016.7
20260831073100 79 122 0.0 0.0 0.00 0.00 0.00 66 1016.7
20260831072533 78 121 0.0 0.0 0.00 0.00 0.00 67 1016.7
20260831072109 77 121 0.0 0.0 0.00 0.00 0.00 66 1016.7
20260831071549 77 121 0.0 0.0 0.00 0.00 0.00 68 1016.7
20260831071041 77 121 0.0 0.0 0.00 0.00 0.00 68 1016.7
20260831070600 77 121 0.0 0.0 0.00 0.00 0.00 69 1016.6
20260831070050 77 121 0.0 0.0 0.00 0.00 0.00 71 1016.6
20260831065612 77 121 0.0 0.0 0.00 0.00 0.00 69 1016.7
20260831065041 77 256 0.0 0.0 0.00 0.00 0.00 71 1016.7
20260831064545 77 256 0.0 0.0 0.00 0.00 0.00 70 1016.6
20260831064041 77 256 0.0 0.0 0.00 0.00 0.00 69 1016.6
20260831063606 76 256 0.0 2.0 0.00 0.00 0.00 71 1016.6
20260831063036 76 250 0.0 2.0 0.00 0.00 0.00 71 1016.6
20260831062534 75 295 0.0 0.0 0.00 0.00 0.00 73 1016.6
20260831062042 74 295 0.0 0.0 0.00 0.00 0.00 73 1016.6
20260831061541 74 295 0.0 0.0 0.00 0.00 0.00 74 1016.5
20260831061050 73 295 0.0 0.0 0.00 0.00 0.00 75 1016.6
20260831060549 73 295 0.0 0.0 0.00 0.00 0.00 75 1016.6
20260831060039 73 295 0.0 0.0 0.00 0.00 0.00 75 1016.5
20260831055541 73 295 0.0 0.0 0.00 0.00 0.00 74 1016.5
20260831055059 73 292 0.0 0.0 0.00 0.00 0.00 75 1016.5
20260831054556 72 292 0.0 0.0 0.00 0.00 0.00 76 1016.4
20260831054112 72 292 0.0 0.0 0.00 0.00 0.00 76 1016.5
20260831053553 72 292 0.0 0.0 0.00 0.00 0.00 76 1016.5
20260831053041 71 292 0.0 0.0 0.00 0.00 0.00 76 1016.5
20260831052602 71 292 0.0 0.0 0.00 0.00 0.00 77 1016.4
20260831052050 70 292 0.0 0.0 0.00 0.00 0.00 79 1016.5
20260831051553 70 289 0.0 0.0 0.00 0.00 0.00 80 1016.5
20260831051104 69 289 0.0 0.0 0.00 0.00 0.00 79 1016.3
20260831050605 69 278 0.0 0.0 0.00 0.00 0.00 79 1016.3
20260831050055 70 308 0.0 0.0 0.00 0.00 0.00 79 1016.3
20260831045536 70 308 0.0 0.0 0.00 0.00 0.00 79 1016.2
20260831045046 70 308 0.0 0.0 0.00 0.00 0.00 78 1016.2
20260831044549 70 308 0.0 0.0 0.00 0.00 0.00 78 1016.2
20260831044058 70 308 0.0 0.0 0.00 0.00 0.00 78 1016.2
20260831043535 70 308 0.0 0.0 0.00 0.00 0.00 79 1016.2
20260831043041 69 308 0.0 0.0 0.00 0.00 0.00 80 1016.2
20260831042557 70 305 0.0 0.0 0.00 0.00 0.00 79 1016.1
20260831042043 70 305 0.0 0.0 0.00 0.00 0.00 78 1016.0
20260831041605 70 305 0.0 0.0 0.00 0.00 0.00 78 1016.0
20260831041103 70 305 0.0 0.0 0.00 0.00 0.00 78 1016.0
20260831040545 70 305 0.0 0.0 0.00 0.00 0.00 77 1016.1
20260831040034 71 305 0.0 0.0 0.00 0.00 0.00 77 1016.0
20260831035538 71 305 0.0 0.0 0.00 0.00 0.00 77 1015.9
20260831035045 71 305 0.0 0.0 0.00 0.00 0.00 77 1015.9
20260831034544 71 305 0.0 0.0 0.00 0.00 0.00 77 1015.8
20260831034034 71 305 0.0 0.0 0.00 0.00 0.00 76 1015.8
20260831033534 71 305 0.0 0.0 0.00 0.00 0.00 75 1015.9
20260831033043 72 305 0.0 0.0 0.00 0.00 0.00 76 1016.0
20260831032544 72 305 0.0 0.0 0.00 0.00 0.00 76 1016.0
20260831032103 72 305 0.0 0.0 0.00 0.00 0.00 76 1016.1
20260831031545 72 305 0.0 0.0 0.00 0.00 0.00 76 1016.1
20260831031058 72 305 0.0 0.0 0.00 0.00 0.00 75 1016.1
20260831030532 72 305 0.0 0.0 0.00 0.00 0.00 75 1016.2
20260831030109 72 305 0.0 0.0 0.00 0.00 0.00 75 1016.3
20260831025550 72 305 0.0 0.0 0.00 0.00 0.00 74 1016.3
20260831025038 72 305 0.0 0.0 0.00 0.00 0.00 74 1016.2
20260831024542 73 305 0.0 0.0 0.00 0.00 0.00 73 1016.1
20260831024057 72 305 0.0 0.0 0.00 0.00 0.00 73 1016.2
20260831023532 72 305 0.0 0.0 0.00 0.00 0.00 73 1016.2
20260831023036 72 302 0.0 0.0 0.00 0.00 0.00 75 1016.2
20260831022542 72 320 0.0 0.0 0.00 0.00 0.00 75 1016.2
20260831022050 72 320 0.0 0.0 0.00 0.00 0.00 75 1016.1
20260831021546 72 320 0.0 0.0 0.00 0.00 0.00 75 1016.0
20260831021104 72 320 0.0 0.0 0.00 0.00 0.00 74 1016.0
20260831020546 73 320 0.0 0.0 0.00 0.00 0.00 74 1016.1
20260831015543 73 320 0.0 0.0 0.00 0.00 0.00 73 1016.1
20260831015037 73 320 0.0 0.0 0.00 0.00 0.00 73 1016.2
20260831014602 73 320 0.0 0.0 0.00 0.00 0.00 73 1016.2
20260831014058 73 320 0.0 0.0 0.00 0.00 0.00 73 1016.2
20260831013533 73 322 0.0 0.0 0.00 0.00 0.00 73 1016.2
20260831013041 73 322 0.0 0.0 0.00 0.00 0.00 73 1016.2
20260831012543 73 323 0.0 0.0 0.00 0.00 0.00 74 1016.2
20260831012033 72 323 0.0 0.0 0.00 0.00 0.00 75 1016.3
20260831011537 72 323 0.0 0.0 0.00 0.00 0.00 76 1016.2
20260831011043 72 323 0.0 0.0 0.00 0.00 0.00 76 1016.1
20260831010544 72 323 0.0 0.0 0.00 0.00 0.00 76 1016.0
20260831010033 73 323 0.0 0.0 0.00 0.00 0.00 75 1016.1
20260831005535 73 323 0.0 0.0 0.00 0.00 0.00 74 1016.2
20260831005051 74 323 0.0 0.0 0.00 0.00 0.00 73 1016.1
20260831004547 74 323 0.0 0.0 0.00 0.00 0.00 73 1016.1
20260831004043 74 323 0.0 0.0 0.00 0.00 0.00 73 1016.3
20260831003544 74 323 0.0 0.0 0.00 0.00 0.00 73 1016.2
20260831003034 74 323 0.0 0.0 0.00 0.00 0.00 72 1016.3
20260831002613 74 323 0.0 0.0 0.00 0.00 0.00 73 1016.3
20260831002109 74 323 0.0 0.0 0.00 0.00 0.00 72 1016.3
20260831001551 74 323 0.0 0.0 0.00 0.00 0.00 72 1016.3
20260831001036 74 323 0.0 0.0 0.00 0.00 0.00 72 1016.4
20260831000536 74 261 0.0 0.0 0.00 0.00 0.00 72 1016.4
20260831000045 74 261 0.0 0.0 0.00 0.00 0.00 72 1016.5
20260830235546 74 267 0.0 0.0 0.00 0.00 0.00 72 1016.5
20260830235037 74 292 0.0 0.0 0.00 0.00 0.00 72 1016.5
20260830234542 74 292 0.0 0.0 0.00 0.00 0.00 72 1016.5
20260830234100 74 292 0.0 0.0 0.00 0.00 0.00 72 1016.5
20260830233533 74 292 0.0 0.0 0.00 0.00 0.00 73 1016.7
20260830233044 74 292 0.0 0.0 0.00 0.00 0.00 72 1016.6
20260830232546 74 292 0.0 0.0 0.00 0.00 0.00 73 1016.7